QPF
0.00 0.00 0.00 0.00 0.00 0.00 0.00 0.00 0.00 0.00 0.00 0.00 0.00 0.00 0.00 0.00 0.00 0.00 0.00 0.00 0.00 0.01 0.01 0.02 0.05 0.07 0.09 0.07 0.06 0.06 0.05 0.04 0.03 0.02 0.02 0.02 0.02 0.01 0.00 0.00 0.00 0.00 0.00 0.00
0.00 0.00 0.00 0.00 0.00 0.00 0.00 0.00 0.00 0.00 0.00 0.00 0.00 0.00 0.00 0.00 0.00 0.00 0.00 0.00 0.00 0.01 0.02 0.03 0.07 0.09 0.13 0.13 0.12 0.13 0.12 0.09 0.06 0.04 0.02 0.01 0.01 0.00 0.00 0.00 0.00 0.00 0.00 0.00
0.00 0.00 0.00 0.00 0.00 0.00 0.00 0.00 0.00 0.00 0.00 0.00 0.00 0.00 0.00 0.00 0.00 0.00 0.00 0.00 0.00 0.01 0.01 0.03 0.06 0.10 0.14 0.17 0.18 0.18 0.15 0.12 0.08 0.06 0.03 0.02 0.01 0.00 0.00 0.00 0.00 0.00 0.00 0.00
0.00 0.00 0.00 0.00 0.00 0.00 0.00 0.00 0.00 0.00 0.00 0.00 0.00 0.00 0.00 0.00 0.00 0.00 0.00 0.00 0.00 0.01 0.01 0.03 0.06 0.09 0.13 0.18 0.19 0.18 0.15 0.13 0.09 0.07 0.05 0.03 0.02 0.01 0.00 0.00 0.00 0.00 0.00 0.00
0.00 0.00 0.00 0.00 0.00 0.00 0.00 0.00 0.00 0.00 0.00 0.00 0.00 0.00 0.00 0.00 0.00 0.00 0.00 0.00 0.00 0.00 0.01 0.02 0.05 0.07 0.12 0.15 0.17 0.16 0.12 0.10 0.07 0.06 0.04 0.02 0.01 0.01 0.00 0.00 0.00 0.00 0.00 0.00
0.00 0.00 0.00 0.00 0.00 0.00 0.00 0.00 0.00 0.00 0.00 0.00 0.00 0.00 0.00 0.00 0.00 0.00 0.00 0.00 0.00 0.00 0.00 0.01 0.03 0.05 0.08 0.11 0.13 0.11 0.09 0.08 0.06 0.05 0.03 0.02 0.01 0.01 0.00 0.00 0.00 0.00 0.00 0.00
0.00 0.00 0.00 0.00 0.00 0.00 0.00 0.00 0.00 0.00 0.00 0.00 0.00 0.00 0.00 0.00 0.00 0.00 0.00 0.00 0.00 0.00 0.01 0.01 0.03 0.05 0.07 0.09 0.10 0.08 0.06 0.05 0.03 0.02 0.01 0.01 0.01 0.00 0.00 0.00 0.00 0.00 0.00 0.00
0.00 0.00 0.00 0.00 0.00 0.00 0.00 0.00 0.00 0.00 0.00 0.00 0.00 0.00 0.00 0.00 0.00 0.00 0.00 0.00 0.00 0.00 0.01 0.02 0.04 0.06 0.07 0.07 0.07 0.06 0.04 0.03 0.01 0.01 0.01 0.00 0.00 0.00 0.00 0.00 0.00 0.00 0.00 0.00
0.00 0.00 0.00 0.00 0.00 0.00 0.00 0.00 0.00 0.00 0.00 0.00 0.00 0.00 0.00 0.00 0.00 0.00 0.00 0.00 0.00 0.00 0.01 0.02 0.04 0.06 0.05 0.04 0.04 0.03 0.02 0.02 0.01 0.01 0.00 0.00 0.00 0.00 0.00 0.00 0.00 0.00 0.00 0.00
0.00 0.00 0.00 0.00 0.00 0.00 0.00 0.00 0.00 0.00 0.00 0.00 0.00 0.00 0.00 0.00 0.00 0.00 0.00 0.00 0.00 0.00 0.01 0.02 0.03 0.04 0.03 0.03 0.03 0.03 0.01 0.01 0.01 0.00 0.00 0.00 0.00 0.00 0.00 0.00 0.00 0.00 0.00 0.00
0.00 0.00 0.00 0.00 0.00 0.00 0.00 0.00 0.00 0.00 0.00 0.00 0.00 0.00 0.00 0.00 0.00 0.00 0.00 0.00 0.00 0.00 0.01 0.01 0.01 0.02 0.03 0.03 0.04 0.03 0.02 0.01 0.01 0.01 0.01 0.00 0.00 0.00 0.00 0.00 0.00 0.00 0.00 0.00
0.00 0.00 0.00 0.00 0.00 0.00 0.00 0.00 0.00 0.00 0.00 0.00 0.00 0.00 0.00 0.00 0.00 0.00 0.00 0.00 0.00 0.00 0.00 0.01 0.01 0.02 0.03 0.04 0.03 0.03 0.03 0.03 0.02 0.01 0.01 0.01 0.00 0.00 0.00 0.00 0.00 0.00 0.00 0.00
0.00 0.00 0.00 0.00 0.00 0.00 0.00 0.00 0.00 0.00 0.00 0.00 0.00 0.00 0.00 0.00 0.00 0.00 0.00 0.00 0.00 0.00 0.00 0.01 0.01 0.02 0.04 0.04 0.04 0.04 0.05 0.05 0.04 0.03 0.02 0.01 0.00 0.00 0.00 0.00 0.00 0.00 0.00 0.00
0.00 0.00 0.00 0.00 0.00 0.00 0.00 0.00 0.00 0.00 0.00 0.00 0.00 0.00 0.00 0.00 0.00 0.00 0.00 0.00 0.00 0.00 0.00 0.01 0.03 0.03 0.04 0.05 0.05 0.06 0.07 0.07 0.05 0.03 0.01 0.00 0.00 0.00 0.00 0.00 0.00 0.00 0.00 0.00
0.00 0.00 0.00 0.00 0.00 0.00 0.00 0.00 0.00 0.00 0.00 0.00 0.00 0.00 0.00 0.00 0.00 0.00 0.00 0.00 0.00 0.01 0.01 0.03 0.05 0.06 0.05 0.06 0.06 0.08 0.07 0.05 0.03 0.01 0.00 0.00 0.00 0.00 0.00 0.00 0.00 0.00 0.00 0.00
0.00 0.00 0.00 0.00 0.00 0.00 0.00 0.00 0.00 0.00 0.00 0.00 0.00 0.00 0.00 0.00 0.00 0.00 0.00 0.00 0.01 0.02 0.03 0.06 0.07 0.07 0.07 0.08 0.09 0.08 0.06 0.04 0.02 0.02 0.01 0.01 0.00 0.00 0.00 0.00 0.00 0.01 0.01 0.01
0.00 0.00 0.00 0.00 0.00 0.00 0.00 0.00 0.00 0.00 0.00 0.00 0.00 0.00 0.00 0.00 0.00 0.00 0.00 0.00 0.02 0.03 0.06 0.08 0.08 0.09 0.11 0.13 0.14 0.14 0.10 0.06 0.04 0.02 0.00 0.00 0.00 0.00 0.00 0.00 0.01 0.01 0.01 0.01
0.00 0.00 0.00 0.00 0.00 0.00 0.00 0.00 0.00 0.00 0.00 0.00 0.00 0.00 0.00 0.00 0.00 0.00 0.00 0.01 0.03 0.04 0.06 0.08 0.09 0.12 0.18 0.23 0.22 0.17 0.11 0.07 0.03 0.01 0.00 0.00 0.00 0.00 0.01 0.01 0.01 0.00 0.00 0.00
0.00 0.00 0.00 0.00 0.00 0.00 0.00 0.00 0.00 0.00 0.00 0.00 0.00 0.00 0.00 0.00 0.00 0.00 0.00 0.01 0.02 0.04 0.06 0.09 0.14 0.21 0.29 0.28 0.21 0.15 0.08 0.03 0.01 0.01 0.00 0.00 0.00 0.00 0.00 0.00 0.00 0.00 0.00 0.00
0.00 0.00 0.00 0.00 0.00 0.00 0.00 0.00 0.00 0.00 0.00 0.00 0.00 0.00 0.00 0.00 0.01 0.01 0.01 0.01 0.03 0.05 0.09 0.16 0.26 0.31 0.31 0.24 0.16 0.10 0.04 0.01 0.01 0.00 0.00 0.00 0.00 0.00 0.00 0.00 0.00 0.00 0.00 0.00
0.00 0.00 0.00 0.00 0.00 0.00 0.00 0.00 0.00 0.00 0.00 0.00 0.00 0.00 0.01 0.01 0.01 0.01 0.01 0.02 0.04 0.08 0.15 0.23 0.29 0.28 0.23 0.15 0.09 0.05 0.02 0.01 0.01 0.00 0.00 0.00 0.00 0.00 0.00 0.00 0.00 0.00 0.00 0.00
0.00 0.00 0.00 0.00 0.00 0.00 0.00 0.00 0.00 0.01 0.00 0.00 0.00 0.00 0.01 0.01 0.01 0.02 0.03 0.05 0.08 0.14 0.20 0.23 0.23 0.19 0.12 0.06 0.03 0.02 0.01 0.00 0.00 0.00 0.00 0.00 0.00 0.00 0.00 0.00 0.00 0.00 0.00 0.00
0.00 0.01 0.01 0.01 0.01 0.01 0.00 0.01 0.01 0.01 0.01 0.00 0.01 0.01 0.01 0.02 0.03 0.05 0.07 0.12 0.15 0.17 0.20 0.20 0.16 0.10 0.05 0.02 0.01 0.01 0.00 0.00 0.00 0.00 0.00 0.00 0.00 0.00 0.00 0.00 0.00 0.00 0.00 0.00
0.01 0.01 0.01 0.01 0.01 0.01 0.01 0.02 0.01 0.01 0.01 0.02 0.02 0.04 0.06 0.07 0.08 0.10 0.13 0.17 0.19 0.19 0.16 0.10 0.06 0.03 0.01 0.01 0.00 0.00 0.00 0.00 0.00 0.00 0.00 0.00 0.00 0.00 0.00 0.00 0.00 0.00 0.00 0.01
0.01 0.02 0.03 0.04 0.03 0.03 0.05 0.05 0.03 0.04 0.04 0.05 0.06 0.07 0.06 0.06 0.07 0.07 0.09 0.11 0.10 0.08 0.05 0.03 0.01 0.00 0.00 0.00 0.00 0.00 0.00 0.00 0.00 0.00 0.00 0.00 0.00 0.00 0.00 0.00 0.00 0.00 0.01 0.01
0.03 0.05 0.06 0.07 0.06 0.06 0.09 0.10 0.08 0.06 0.05 0.05 0.05 0.06 0.08 0.08 0.07 0.05 0.04 0.04 0.03 0.02 0.01 0.00 0.00 0.00 0.00 0.00 0.00 0.00 0.00 0.00 0.00 0.00 0.00 0.00 0.00 0.00 0.00 0.00 0.00 0.00 0.00 0.00
MSLP
1011.28 1011.67 1011.90 1012.01 1012.01 1011.97 1011.92 1011.90 1011.89 1011.87 1011.80 1011.65 1011.39 1011.02 1010.56 1010.08 1009.64 1009.33 1009.21 1009.30 1009.63 1010.14 1010.80 1011.51 1012.22 1012.87 1013.42 1013.88 1014.27 1014.60 1014.93 1015.28 1015.66 1016.09 1016.54 1016.99 1017.42 1017.81 1018.14 1018.41 1018.62 1018.78 1018.92 1019.04
1011.22 1011.55 1011.75 1011.85 1011.89 1011.92 1011.96 1012.03 1012.12 1012.17 1012.13 1011.96 1011.63 1011.15 1010.58 1009.97 1009.44 1009.07 1008.93 1009.06 1009.45 1010.07 1010.84 1011.66 1012.46 1013.17 1013.76 1014.22 1014.59 1014.90 1015.19 1015.52 1015.89 1016.32 1016.78 1017.25 1017.71 1018.11 1018.46 1018.73 1018.95 1019.12 1019.26 1019.39
1011.00 1011.28 1011.45 1011.55 1011.64 1011.74 1011.89 1012.07 1012.25 1012.35 1012.32 1012.10 1011.68 1011.09 1010.38 1009.65 1009.02 1008.60 1008.46 1008.65 1009.14 1009.88 1010.78 1011.74 1012.64 1013.43 1014.07 1014.54 1014.90 1015.17 1015.44 1015.73 1016.08 1016.50 1016.96 1017.44 1017.91 1018.32 1018.67 1018.95 1019.17 1019.34 1019.48 1019.61
1010.62 1010.84 1010.98 1011.10 1011.23 1011.43 1011.68 1011.97 1012.23 1012.38 1012.35 1012.09 1011.58 1010.86 1010.02 1009.18 1008.46 1008.00 1007.88 1008.13 1008.73 1009.61 1010.66 1011.76 1012.78 1013.65 1014.34 1014.83 1015.17 1015.42 1015.65 1015.91 1016.24 1016.64 1017.09 1017.58 1018.05 1018.47 1018.82 1019.10 1019.31 1019.48 1019.62 1019.75
1010.14 1010.28 1010.38 1010.50 1010.69 1010.97 1011.33 1011.72 1012.06 1012.26 1012.24 1011.94 1011.35 1010.54 1009.59 1008.65 1007.87 1007.39 1007.29 1007.61 1008.31 1009.32 1010.51 1011.73 1012.87 1013.82 1014.56 1015.07 1015.41 1015.64 1015.83 1016.06 1016.36 1016.75 1017.20 1017.68 1018.15 1018.58 1018.93 1019.21 1019.42 1019.58 1019.71 1019.84
1009.61 1009.66 1009.71 1009.82 1010.05 1010.40 1010.85 1011.34 1011.76 1012.02 1012.02 1011.70 1011.07 1010.18 1009.16 1008.15 1007.33 1006.83 1006.76 1007.14 1007.93 1009.04 1010.35 1011.68 1012.91 1013.94 1014.72 1015.25 1015.59 1015.81 1015.98 1016.19 1016.48 1016.85 1017.29 1017.78 1018.26 1018.68 1019.04 1019.31 1019.51 1019.66 1019.78 1019.90
1009.11 1009.06 1009.05 1009.14 1009.38 1009.78 1010.30 1010.86 1011.37 1011.68 1011.71 1011.40 1010.75 1009.84 1008.77 1007.73 1006.89 1006.39 1006.33 1006.75 1007.61 1008.79 1010.18 1011.59 1012.89 1013.98 1014.80 1015.37 1015.72 1015.94 1016.11 1016.31 1016.58 1016.95 1017.40 1017.89 1018.37 1018.80 1019.15 1019.42 1019.60 1019.74 1019.84 1019.93
1008.74 1008.58 1008.49 1008.54 1008.77 1009.18 1009.75 1010.36 1010.92 1011.28 1011.35 1011.07 1010.43 1009.51 1008.44 1007.39 1006.55 1006.05 1006.00 1006.44 1007.32 1008.55 1009.98 1011.44 1012.79 1013.92 1014.79 1015.39 1015.77 1016.01 1016.19 1016.41 1016.69 1017.07 1017.52 1018.01 1018.49 1018.92 1019.26 1019.51 1019.68 1019.78 1019.86 1019.92
1008.55 1008.29 1008.12 1008.11 1008.30 1008.70 1009.27 1009.90 1010.47 1010.86 1010.96 1010.70 1010.09 1009.19 1008.14 1007.10 1006.26 1005.77 1005.72 1006.16 1007.04 1008.27 1009.71 1011.20 1012.58 1013.75 1014.66 1015.31 1015.74 1016.02 1016.24 1016.48 1016.79 1017.18 1017.63 1018.12 1018.59 1019.01 1019.34 1019.57 1019.70 1019.78 1019.81 1019.83
1008.59 1008.25 1008.00 1007.92 1008.05 1008.40 1008.92 1009.52 1010.07 1010.45 1010.54 1010.29 1009.70 1008.84 1007.82 1006.81 1005.99 1005.50 1005.45 1005.87 1006.73 1007.95 1009.37 1010.86 1012.26 1013.47 1014.43 1015.14 1015.64 1015.98 1016.26 1016.54 1016.87 1017.27 1017.73 1018.21 1018.66 1019.06 1019.36 1019.55 1019.66 1019.69 1019.67 1019.64
1008.85 1008.45 1008.14 1008.00 1008.06 1008.32 1008.75 1009.26 1009.74 1010.05 1010.11 1009.85 1009.27 1008.44 1007.45 1006.48 1005.69 1005.21 1005.16 1005.56 1006.39 1007.57 1008.98 1010.46 1011.87 1013.12 1014.14 1014.91 1015.48 1015.90 1016.24 1016.57 1016.93 1017.34 1017.79 1018.25 1018.68 1019.04 1019.30 1019.46 1019.52 1019.51 1019.45 1019.38
1009.28 1008.87 1008.53 1008.33 1008.30 1008.45 1008.76 1009.14 1009.49 1009.71 1009.69 1009.39 1008.81 1007.99 1007.06 1006.13 1005.38 1004.94 1004.89 1005.28 1006.08 1007.23 1008.61 1010.07 1011.49 1012.77 1013.84 1014.69 1015.34 1015.83 1016.23 1016.60 1016.98 1017.39 1017.82 1018.25 1018.64 1018.96 1019.18 1019.29 1019.31 1019.26 1019.17 1019.07
1009.83 1009.44 1009.09 1008.84 1008.73 1008.77 1008.93 1009.15 1009.34 1009.42 1009.31 1008.95 1008.36 1007.57 1006.68 1005.83 1005.14 1004.75 1004.73 1005.12 1005.91 1007.03 1008.38 1009.82 1011.24 1012.54 1013.65 1014.56 1015.26 1015.82 1016.27 1016.66 1017.05 1017.44 1017.84 1018.22 1018.56 1018.83 1019.01 1019.08 1019.07 1019.00 1018.88 1018.76
1010.42 1010.08 1009.74 1009.47 1009.29 1009.21 1009.21 1009.26 1009.29 1009.22 1009.00 1008.59 1007.98 1007.24 1006.43 1005.67 1005.08 1004.77 1004.80 1005.22 1006.01 1007.10 1008.42 1009.83 1011.22 1012.52 1013.65 1014.58 1015.32 1015.91 1016.38 1016.78 1017.15 1017.51 1017.86 1018.19 1018.48 1018.69 1018.83 1018.87 1018.84 1018.76 1018.64 1018.52
1010.96 1010.69 1010.40 1010.12 1009.88 1009.70 1009.57 1009.46 1009.33 1009.13 1008.81 1008.36 1007.77 1007.10 1006.40 1005.77 1005.31 1005.11 1005.23 1005.69 1006.49 1007.56 1008.83 1010.19 1011.54 1012.80 1013.90 1014.82 1015.55 1016.13 1016.58 1016.96 1017.30 1017.61 1017.91 1018.18 1018.41 1018.58 1018.68 1018.71 1018.67 1018.59 1018.49 1018.39
1011.41 1011.22 1010.98 1010.72 1010.44 1010.18 1009.94 1009.70 1009.45 1009.14 1008.77 1008.31 1007.78 1007.22 1006.66 1006.20 1005.91 1005.85 1006.08 1006.61 1007.42 1008.46 1009.67 1010.95 1012.22 1013.39 1014.42 1015.27 1015.96 1016.49 1016.90 1017.23 1017.51 1017.76 1018.00 1018.22 1018.40 1018.53 1018.61 1018.63 1018.60 1018.53 1018.45 1018.38
1011.74 1011.63 1011.44 1011.20 1010.92 1010.61 1010.30 1009.97 1009.63 1009.28 1008.89 1008.48 1008.05 1007.63 1007.26 1007.00 1006.90 1007.01 1007.35 1007.95 1008.77 1009.77 1010.89 1012.06 1013.20 1014.25 1015.16 1015.91 1016.50 1016.95 1017.29 1017.55 1017.77 1017.97 1018.15 1018.31 1018.45 1018.56 1018.63 1018.65 1018.63 1018.58 1018.52 1018.47
1011.95 1011.90 1011.77 1011.56 1011.28 1010.96 1010.61 1010.24 1009.88 1009.52 1009.18 1008.86 1008.57 1008.33 1008.17 1008.13 1008.23 1008.51 1008.97 1009.62 1010.44 1011.38 1012.39 1013.42 1014.40 1015.29 1016.04 1016.66 1017.13 1017.47 1017.72 1017.91 1018.06 1018.20 1018.34 1018.47 1018.59 1018.68 1018.75 1018.78 1018.77 1018.74 1018.70 1018.66
1012.08 1012.07 1011.98 1011.80 1011.55 1011.23 1010.88 1010.52 1010.17 1009.86 1009.61 1009.41 1009.29 1009.25 1009.31 1009.48 1009.78 1010.21 1010.77 1011.45 1012.24 1013.10 1013.98 1014.85 1015.65 1016.35 1016.94 1017.39 1017.73 1017.98 1018.14 1018.26 1018.36 1018.46 1018.57 1018.68 1018.79 1018.89 1018.96 1018.99 1019.00 1018.98 1018.94 1018.90
1012.18 1012.19 1012.13 1011.98 1011.75 1011.46 1011.13 1010.80 1010.51 1010.28 1010.13 1010.08 1010.13 1010.28 1010.54 1010.91 1011.37 1011.92 1012.55 1013.25 1013.98 1014.74 1015.47 1016.17 1016.78 1017.31 1017.73 1018.04 1018.26 1018.41 1018.51 1018.58 1018.65 1018.73 1018.83 1018.94 1019.05 1019.16 1019.24 1019.29 1019.30 1019.28 1019.24 1019.18
1012.31 1012.33 1012.28 1012.15 1011.94 1011.68 1011.40 1011.12 1010.90 1010.76 1010.73 1010.81 1011.02 1011.34 1011.76 1012.28 1012.86 1013.49 1014.15 1014.82 1015.49 1016.13 1016.72 1017.25 1017.70 1018.06 1018.34 1018.53 1018.66 1018.75 1018.80 1018.86 1018.92 1019.00 1019.10 1019.23 1019.35 1019.47 1019.56 1019.62 1019.64 1019.62 1019.56 1019.46
1012.52 1012.53 1012.48 1012.36 1012.18 1011.96 1011.72 1011.50 1011.35 1011.30 1011.37 1011.57 1011.90 1012.34 1012.87 1013.48 1014.13 1014.79 1015.45 1016.07 1016.65 1017.18 1017.63 1018.02 1018.33 1018.57 1018.74 1018.86 1018.94 1018.99 1019.04 1019.10 1019.17 1019.27 1019.39 1019.53 1019.68 1019.81 1019.91 1019.98 1020.00 1019.96 1019.88 1019.76
1012.82 1012.81 1012.76 1012.66 1012.50 1012.31 1012.11 1011.95 1011.87 1011.89 1012.03 1012.31 1012.72 1013.23 1013.83 1014.47 1015.14 1015.78 1016.40 1016.95 1017.44 1017.86 1018.21 1018.49 1018.71 1018.87 1018.98 1019.07 1019.13 1019.19 1019.25 1019.33 1019.43 1019.55 1019.70 1019.85 1020.01 1020.15 1020.26 1020.33 1020.34 1020.30 1020.21 1020.05
1013.20 1013.19 1013.14 1013.05 1012.91 1012.75 1012.60 1012.49 1012.45 1012.52 1012.72 1013.04 1013.48 1014.01 1014.61 1015.24 1015.87 1016.48 1017.02 1017.50 1017.91 1018.25 1018.52 1018.73 1018.90 1019.03 1019.13 1019.22 1019.30 1019.39 1019.48 1019.59 1019.71 1019.86 1020.01 1020.17 1020.33 1020.47 1020.58 1020.64 1020.66 1020.62 1020.51 1020.34
1013.64 1013.63 1013.58 1013.51 1013.39 1013.27 1013.16 1013.09 1013.09 1013.19 1013.41 1013.74 1014.17 1014.69 1015.25 1015.84 1016.41 1016.94 1017.41 1017.82 1018.16 1018.44 1018.67 1018.85 1019.01 1019.14 1019.27 1019.39 1019.51 1019.63 1019.76 1019.89 1020.03 1020.18 1020.33 1020.48 1020.62 1020.75 1020.85 1020.91 1020.92 1020.88 1020.78 1020.61
1014.07 1014.07 1014.05 1013.99 1013.92 1013.83 1013.76 1013.73 1013.76 1013.89 1014.10 1014.42 1014.82 1015.29 1015.79 1016.31 1016.80 1017.26 1017.66 1018.01 1018.31 1018.56 1018.77 1018.96 1019.14 1019.31 1019.48 1019.65 1019.81 1019.97 1020.12 1020.26 1020.39 1020.52 1020.65 1020.77 1020.88 1020.98 1021.06 1021.11 1021.13 1021.10 1021.01 1020.85
Thickness
5737 5733 5734 5743 5747 5750 5748 5745 5747 5758 5764 5757 5758 5763 5771 5775 5777 5781 5783 5783 5779 5776 5770 5763 5757 5751 5746 5741 5736 5730 5724 5717 5713 5708 5704 5697 5691 5687 5682 5677 5672 5668 5664 5660
5723 5727 5743 5747 5743 5737 5735 5732 5738 5750 5754 5747 5749 5754 5766 5768 5770 5775 5776 5776 5775 5768 5757 5752 5748 5743 5739 5734 5728 5722 5716 5711 5706 5701 5696 5690 5684 5678 5672 5666 5660 5657 5652 5648
5723 5737 5744 5733 5727 5723 5727 5729 5736 5739 5746 5746 5740 5743 5756 5763 5766 5768 5771 5773 5773 5765 5754 5746 5740 5736 5731 5726 5720 5715 5708 5702 5697 5691 5685 5678 5672 5668 5662 5656 5652 5646 5641 5637
5725 5738 5729 5723 5724 5724 5721 5736 5734 5732 5728 5734 5738 5727 5756 5758 5756 5760 5765 5767 5767 5762 5753 5743 5736 5729 5724 5718 5712 5706 5699 5692 5687 5682 5677 5672 5668 5661 5653 5648 5642 5635 5630 5626
5724 5731 5723 5718 5725 5726 5726 5737 5731 5728 5724 5723 5730 5720 5744 5753 5747 5759 5765 5765 5763 5758 5747 5737 5729 5722 5714 5708 5702 5695 5689 5682 5677 5672 5666 5662 5657 5650 5643 5637 5630 5625 5621 5615
5730 5735 5730 5729 5733 5732 5730 5724 5722 5722 5721 5707 5724 5722 5732 5751 5748 5761 5767 5763 5757 5750 5739 5728 5719 5711 5703 5697 5690 5684 5678 5671 5667 5662 5656 5651 5644 5637 5631 5626 5621 5616 5612 5605
5713 5721 5727 5730 5721 5721 5719 5707 5699 5701 5705 5713 5738 5725 5734 5756 5758 5761 5761 5757 5750 5740 5728 5716 5707 5699 5692 5685 5679 5674 5668 5661 5655 5650 5645 5639 5632 5625 5619 5616 5610 5604 5602 5596
5705 5707 5723 5724 5719 5716 5714 5710 5696 5693 5706 5723 5732 5717 5739 5751 5753 5755 5755 5753 5744 5731 5721 5709 5700 5692 5684 5676 5670 5664 5658 5652 5645 5640 5633 5626 5620 5618 5611 5602 5598 5592 5587 5582
5709 5709 5729 5729 5729 5722 5712 5712 5720 5706 5702 5698 5714 5730 5739 5744 5743 5745 5747 5744 5735 5724 5713 5702 5693 5685 5676 5668 5661 5655 5649 5642 5636 5630 5622 5615 5610 5604 5596 5588 5583 5580 5572 5567
5707 5699 5715 5722 5721 5719 5722 5720 5709 5696 5681 5682 5702 5715 5728 5735 5739 5743 5741 5737 5730 5717 5705 5695 5686 5677 5669 5660 5653 5646 5639 5633 5626 5620 5614 5606 5598 5590 5583 5578 5571 5565 5559 5553
5696 5689 5701 5706 5704 5710 5705 5704 5702 5703 5703 5690 5690 5712 5743 5736 5737 5736 5737 5735 5726 5712 5700 5689 5679 5670 5660 5651 5643 5636 5629 5622 5616 5610 5602 5594 5586 5579 5571 5565 5559 5553 5548 5542
5681 5685 5689 5701 5713 5711 5711 5708 5704 5689 5691 5697 5691 5705 5742 5735 5733 5730 5729 5727 5720 5706 5694 5683 5672 5661 5651 5642 5635 5628 5620 5613 5606 5599 5590 5582 5573 5566 5560 5554 5548 5542 5537 5531
5667 5668 5668 5679 5688 5694 5695 5698 5700 5698 5692 5689 5686 5703 5730 5725 5723 5722 5719 5716 5708 5695 5683 5672 5661 5650 5641 5634 5627 5618 5610 5602 5595 5587 5578 5570 5562 5556 5549 5543 5536 5531 5526 5521
5653 5657 5660 5667 5678 5674 5676 5682 5686 5684 5683 5686 5693 5701 5716 5714 5711 5710 5708 5704 5696 5683 5672 5661 5650 5640 5632 5623 5615 5606 5596 5588 5581 5574 5567 5559 5552 5545 5538 5533 5527 5521 5516 5511
5642 5644 5651 5657 5663 5664 5664 5668 5672 5672 5675 5673 5683 5689 5696 5698 5697 5697 5696 5692 5683 5671 5660 5650 5639 5629 5619 5610 5601 5592 5582 5575 5568 5561 5555 5548 5540 5534 5528 5523 5517 5512 5507 5502
5627 5629 5633 5637 5647 5650 5651 5659 5662 5664 5667 5668 5671 5675 5686 5684 5683 5681 5681 5678 5670 5660 5648 5636 5625 5615 5604 5595 5585 5575 5569 5561 5554 5547 5542 5536 5530 5524 5519 5513 5508 5503 5497 5492
5617 5615 5617 5625 5636 5631 5635 5651 5653 5656 5662 5659 5656 5660 5662 5661 5661 5660 5662 5662 5656 5646 5633 5620 5608 5597 5586 5576 5568 5560 5554 5547 5541 5535 5530 5526 5520 5515 5510 5505 5500 5493 5486 5479
5599 5602 5608 5615 5613 5605 5633 5635 5635 5634 5639 5640 5639 5639 5640 5639 5640 5640 5642 5642 5636 5626 5613 5600 5588 5576 5565 5557 5551 5546 5541 5535 5530 5525 5520 5515 5510 5505 5499 5493 5486 5478 5471 5464
5591 5592 5598 5603 5607 5615 5622 5615 5613 5614 5621 5619 5618 5620 5624 5625 5624 5617 5613 5615 5610 5600 5588 5577 5566 5556 5547 5541 5536 5533 5528 5523 5519 5514 5509 5504 5498 5492 5486 5478 5469 5462 5457 5450
5582 5584 5588 5591 5586 5594 5601 5600 5605 5604 5607 5604 5604 5605 5608 5609 5607 5592 5584 5581 5575 5567 5560 5552 5545 5539 5533 5527 5524 5521 5517 5512 5507 5502 5496 5489 5483 5476 5469 5461 5455 5449 5443 5438
5576 5575 5578 5580 5578 5591 5585 5590 5595 5589 5592 5589 5589 5589 5590 5586 5578 5567 5560 5554 5548 5543 5538 5533 5529 5524 5520 5516 5514 5510 5506 5500 5494 5488 5481 5474 5468 5461 5454 5448 5442 5436 5431 5424
5570 5572 5573 5573 5570 5572 5572 5576 5573 5574 5575 5575 5574 5573 5568 5561 5552 5545 5538 5533 5528 5524 5520 5518 5515 5511 5508 5505 5502 5498 5493 5487 5482 5476 5469 5462 5455 5450 5444 5437 5431 5424 5417 5414
5559 5562 5564 5564 5565 5564 5563 5558 5559 5560 5561 5561 5560 5556 5551 5542 5534 5527 5521 5516 5512 5510 5507 5506 5504 5501 5497 5495 5493 5489 5482 5477 5471 5465 5458 5451 5444 5438 5432 5427 5421 5414 5407 5402
5551 5551 5551 5552 5556 5552 5548 5548 5547 5548 5549 5548 5546 5541 5536 5527 5519 5513 5509 5505 5502 5500 5498 5497 5496 5493 5490 5487 5483 5478 5472 5466 5461 5455 5448 5442 5437 5431 5421 5415 5409 5402 5395 5391
5542 5541 5540 5541 5542 5539 5536 5534 5534 5534 5535 5534 5532 5529 5523 5518 5512 5508 5504 5500 5496 5494 5492 5492 5491 5488 5483 5479 5474 5469 5463 5458 5452 5446 5441 5435 5429 5421 5412 5404 5395 5390 5383 5377
5535 5533 5532 5531 5528 5527 5523 5523 5524 5525 5525 5523 5521 5517 5513 5510 5505 5502 5499 5496 5493 5491 5490 5488 5485 5482 5477 5472 5466 5460 5454 5450 5445 5440 5434 5429 5421 5412 5406 5398 5390 5379 5374 5370